Flag for Madagascar Weather past 2 weeks in Antananarivo, Madagascar

Now
68 °F

Partly cloudy.


Feels Like: 68 °F
Forecast: 64 / 75 °F
Wind: 8 mph from Southeast

Location: Antananarivo / Ivato

Current Time: Mar 4, 2015 at 7:12:06 PM

Latest Report: Mar 4, 2015 at 6:30 PM


Visibility: N/A

Pressure: 30.04 "Hg

Humidity: 100%

Dew point: 68 °F

Location of AntananarivoLocation

Historic Weather in Antananarivo — Graph

°F

Antananarivo temperature yesterday

Maximum temperature yesterday: 81 °F (at 3:30 PM)
Minimum temperature yesterday: 64 °F (at 6:00 AM)
Average temperature yesterday: 70 °F

Past Weeks' High & Low Weather Summary

 TemperatureHumidityPressure
High84 °F (Feb 18, 2:02 PM)100% (Feb 17, 7:00 PM)30.18 "Hg (Feb 17, 7:00 PM)
Low61 °F (Mar 1, 5:30 AM)66% (Feb 20, 3:00 PM)29.92 "Hg (Feb 25, 3:00 PM)
Average70 °F96%30.05 "Hg
* Reported Feb 17 6:00 PM — Mar 4 6:00 PM, Antananarivo, Weather by CustomWeather, © 2015

Note: Actual official high and low records may vary slightly from our data, if they occured in-between our weather recording intervals... More about our weather records

Advertising

Antananarivo weather history for previous 24 hours

 ConditionsComfort  
Time TempWeatherWind HumidityBarometerVisibility
6:00 PM
Wed, Mar 4
68 °FBroken clouds.6 mph100%30.04 "HgN/A
5:30 PM68 °FBroken clouds.8 mph100%30.01 "HgN/A
5:00 PM70 °FBroken clouds.9 mph94%30.01 "HgN/A
4:30 PM70 °FBroken clouds.10 mph94%30.01 "HgN/A
4:00 PM72 °FBroken clouds.9 mph94%30.01 "HgN/A
3:30 PM72 °FBroken clouds.13 mph94%30.01 "HgN/A
3:00 PM70 °FBroken clouds.8 mph100%30.01 "HgN/A
2:30 PM70 °FBroken clouds.8 mph100%30.04 "HgN/A
2:00 PM70 °FLight rain. Broken clouds.9 mph100%30.04 "HgN/A
1:30 PM70 °FLight rain. Partly sunny.7 mph100%30.04 "HgN/A
1:00 PM70 °FLight rain. Partly sunny.10 mph100%30.04 "HgN/A
12:30 PM70 °FLight rain. Partly sunny.10 mph100%30.07 "HgN/A
12:00 PM68 °FLight rain. Partly sunny.8 mph100%30.07 "HgN/A
11:30 AM68 °FLight rain. Partly sunny.8 mph100%30.09 "HgN/A
11:00 AM68 °FLight rain. Partly sunny.10 mph100%30.09 "Hg6 mi
10:30 AM66 °FLight rain. Broken clouds.12 mph100%30.09 "Hg6 mi
10:00 AM66 °FLight rain. Mostly cloudy.10 mph100%30.09 "HgN/A
9:30 AM64 °FLight rain. Mostly cloudy.7 mph100%30.09 "HgN/A
9:00 AM64 °FLight rain. Mostly cloudy.14 mph100%30.09 "Hg5 mi
8:30 AM64 °FLight rain. Mostly cloudy.15 mph100%30.09 "Hg5 mi
8:00 AM63 °FLight rain. Mostly cloudy.17 mph100%30.07 "Hg3 mi
7:30 AM64 °FLight rain. Partly sunny.13 mph100%30.07 "Hg3 mi
7:00 AM64 °FLight rain. Partly sunny.13 mph100%30.07 "Hg3 mi
6:30 AM64 °FBroken clouds.16 mph100%30.07 "Hg6 mi
6:00 AM64 °FBroken clouds.13 mph100%30.07 "HgN/A
5:30 AM64 °FPartly cloudy.9 mph100%30.07 "HgN/A
5:00 AM64 °FPartly cloudy.8 mph100%30.07 "HgN/A
4:30 AM64 °FPartly cloudy.7 mph100%30.07 "HgN/A
4:00 AM64 °FPartly cloudy.5 mph100%30.07 "HgN/A
3:30 AM64 °FLight rain. Partly cloudy.6 mph100%30.07 "Hg3 mi
3:00 AM64 °FLight rain. Partly cloudy.8 mph100%N/A3 mi
2:30 AM64 °FPartly cloudy.10 mph100%N/A5 mi
2:00 AM66 °FPartly cloudy.14 mph100%30.07 "HgN/A
1:30 AM66 °FPassing clouds.10 mph100%30.07 "HgN/A
1:00 AM66 °FPassing clouds.12 mph100%30.07 "HgN/A
12:00 AM66 °FPassing clouds.9 mph100%30.09 "HgN/A
11:30 PM
Tue, Mar 3
66 °FPassing clouds.8 mph100%30.09 "HgN/A
11:00 PM66 °FPassing clouds.7 mph100%30.09 "HgN/A
10:30 PM68 °FPassing clouds.9 mph100%30.09 "HgN/A
10:00 PM68 °FPassing clouds.12 mph100%30.09 "HgN/A
9:30 PM68 °FPartly cloudy.7 mph100%30.09 "HgN/A
9:00 PM70 °FPartly cloudy.9 mph100%30.09 "HgN/A
8:30 PM70 °FPartly cloudy.7 mph100%30.09 "HgN/A
8:00 PM70 °FPartly cloudy.7 mph100%30.07 "HgN/A
7:30 PM70 °FPartly cloudy.7 mph100%30.07 "HgN/A
7:00 PM70 °FPartly cloudy.10 mph100%30.07 "HgN/A
Weather by CustomWeather, © 2015

See weather overviewHow to use our weather pages